SHENZHOU-18 (SZ-18)

Last updated on Mon Nov 04 2024 00:02:07 GMT+0000 (Coordinated Universal Time)

1 59591U 24078A 24308.44252077 .00069292 00000+0 80311-3 0 9991 2 59591 41.4673 313.5295 0006134 330.2512 29.7977 15.60835941 29008
UTC large
Height (km)
Speed (km/s)
/
Latitude / Longitude
Inclination (degrees)
Orbital Period (minutes)
Azimuth
Elevation
Range (km)
Doppler Factor

Next 0 passes for location: London (51.5072 / 0.1276)

Sorry there are no passes over London.